sat.trackr.live / text

‹ back to catalog

BOTSAT-1

NORAD 63216 · 2025-052G

PAYLOAD ACTIVE UNKNOWN

§ Identity

Operator
Country
BWA
Launch date
2025-03-15
Launch site
AFWTR
Launch vehicle
Mass (kg)
RCS (m²)

External: N2YO · Heavens-Above · Gunter

§ Orbital elements

Epoch: 2026-05-24T23:04:33.536064Z

Period
94.32 min
Inclination
97.3913°
Eccentricity
0.0002264
Mean motion
15.26725306 rev/d
Perigee alt
484.1 km
Apogee alt
487.2 km
Semi-major
6,863.7 km
B*
2.9873e-4
RAAN
39.0410°
Arg perigee
154.2397°
Mean anomaly
205.8955°
Rev number
6,641

§ Raw data

BOTSAT-11 63216U 25052G   26144.96149926  .00007779  00000+0  29873-3 0  99962 63216  97.3913  39.0410 0002264 154.2397 205.8955 15.26725306 66412

JSON: /api/v1/satellites/63216 · /tle

For live sub-satellite position, see the globe view (requires WebGL).

§ Visibility from observer

Set your observer location to see the next 7 days of passes ≥ 10°. The values pass through the URL so the page stays shareable.

No JS? Fill the form by hand. The geolocation button needs JavaScript.

§ Radio — SatNOGS DB

ModeDescriptionDownlinkUplink
GMSK Mode U - GMSK4k8 - Telemetry 401.360 MHz
FM Mode X - Transmitter 8.185 GHz

2 transmitters · refreshed weekly from db.satnogs.org